Location: Eckley Miners' Village
(40.9930°N, 75.8630°W)
Time: 14:47:09
(UTC-05:00)

BlueWalker 3 - Pass Details

Date: 11 December 2023
Orbit: 486 x 500 km, 53.2° (Epoch: 26 February)

Event Time Altitude Azimuth Distance (km) Brightness Sun altitude
Rises 18:44:52 0° 197° (SSW) 2,588 5.9 -23.7°
Reaches altitude 10° 18:47:22 10° 182° (S) 1,711 4.8 -24.1°
Enters shadow 18:47:54 13° 177° (S) 1,547 4.5 -24.2°
